Weather History for KHIF - May, 2014

Change the Weather History Date:

Sunday, May 18, 2014

  Actual Average Record
Temperature  
Mean Temperature 63 °F -  
Max Temperature 72 °F 68 °F 87 °F (2002)
Min Temperature 55 °F 47 °F 41 °F (2011)
Degree Days  
Heating Degree Days 2    
Growing Degree Days 13 (Base 50)    
Moisture  
Dew Point 32 °F    
Average Humidity 31    
Maximum Humidity 59    
Minimum Humidity 18    
Precipitation  
Precipitation 0.00 in - - ()
Sea Level Pressure  
Sea Level Pressure 29.70 in    
Wind  
Wind Speed 11 mph (NNW)    
Max Wind Speed 15 mph    
Max Gust Speed 17 mph    
Visibility 10 miles    
Events Rain    
Averages and records for this station are not official NWS values.
T = Trace of Precipitation, MM = Missing Value Source: NWS Daily Summary

Daily Weather History Graph

Daily Weather History Graph

Search for Another Location

Airport or City:

Trip Planner

Search our weather history database for the weather conditions in past years. The results will help you decide how hot, cold, wet, or windy it might be!

Date:

Astronomy

May. 18, 2014 Rise Set
Actual Time 6:06 AM MDT 8:42 PM MDT
Civil Twilight 5:35 AM MDT 9:14 PM MDT
Nautical Twilight 4:55 AM MDT 9:53 PM MDT
Astronomical Twilight 4:11 AM MDT 10:38 PM MDT
Moon No Moon Rise 10:00 AM MDT (5/18)
Length of Visible Light 15h 38m
Length of Day
14h 35m
Waning Gibbous, 80% of the Moon is Illuminated
May 18
Waning Gibbous
May 21
Last Quarter
May 28
New
Jun 5
First Quarter
Jun 12
Full

Hourly Weather History & Observations

Time (MDT) Temp. Dew Point Humidity Pressure Visibility Wind Dir Wind Speed Gust Speed Precip Events Conditions
12:58 AM 62.2 °F 33.8 °F 35% 29.62 in 10.0 mi ESE 12.7 mph - N/A   Clear
1:58 AM 61.2 °F 33.1 °F 35% 29.60 in 10.0 mi ESE 13.8 mph - N/A   Clear
2:58 AM 60.4 °F 32.5 °F 35% 29.60 in 10.0 mi ESE 11.5 mph - N/A   Clear
3:58 AM 58.6 °F 32.9 °F 38% 29.59 in 10.0 mi ESE 12.7 mph - N/A   Clear
4:58 AM 57.7 °F 32.9 °F 39% 29.58 in 10.0 mi ESE 13.8 mph - N/A   Clear
5:58 AM 56.1 °F 32.4 °F 41% 29.60 in 10.0 mi ESE 10.4 mph - N/A   Clear
6:58 AM 55.9 °F 33.8 °F 43% 29.61 in 10.0 mi ESE 11.5 mph - N/A   Clear
7:58 AM 56.1 °F 36.3 °F 47% 29.77 in 10.0 mi East 10.4 mph - N/A   Clear
8:58 AM 61.0 °F 37.4 °F 42% 29.79 in 10.0 mi East 6.9 mph - N/A   Clear
9:58 AM 68.0 °F 31.6 °F 26% 29.79 in 10.0 mi WNW 8.1 mph - N/A   Clear
10:58 AM 68.5 °F 31.1 °F 25% 29.79 in 10.0 mi WNW 15.0 mph - N/A   Partly Cloudy
11:58 AM 69.6 °F 28.9 °F 22% 29.79 in 10.0 mi WNW 8.1 mph 17.3 mph N/A   Scattered Clouds
12:33 PM 71.6 °F 28.4 °F 20% 29.79 in 10.0 mi West 11.5 mph - N/A   Mostly Cloudy
12:58 PM 70.7 °F 30.2 °F 22% 29.78 in 10.0 mi WNW 11.5 mph - N/A   Mostly Cloudy
1:07 PM 69.8 °F 30.2 °F 23% 29.79 in 10.0 mi NW 11.5 mph - N/A   Mostly Cloudy
1:58 PM 70.7 °F 27.1 °F 20% 29.78 in 10.0 mi NW 10.4 mph - N/A   Mostly Cloudy
2:58 PM 71.1 °F 26.4 °F 19% 29.78 in 10.0 mi NW 8.1 mph - N/A   Mostly Cloudy
3:58 PM 70.2 °F 26.8 °F 20% 29.78 in 10.0 mi NNW 8.1 mph - N/A   Scattered Clouds
4:58 PM 69.8 °F 24.6 °F 18% 29.77 in 10.0 mi NNW 10.4 mph - N/A   Partly Cloudy
5:58 PM 69.4 °F 26.2 °F 20% 29.75 in 10.0 mi North 10.4 mph - N/A   Partly Cloudy
6:55 PM 68.0 °F 30.2 °F 24% 29.74 in 10.0 mi North 5.8 mph - N/A Rain Light Rain
6:58 PM 68.0 °F 30.0 °F 24% 29.74 in 10.0 mi North 4.6 mph - 0.00 in Rain Light Rain
6:59 PM 68.0 °F 30.2 °F 24% 29.74 in 10.0 mi North 3.5 mph - N/A   Partly Cloudy
7:58 PM 66.9 °F 28.6 °F 24% 29.62 in 10.0 mi WNW 2.3 mph - 0.00 in   Partly Cloudy
8:58 PM 65.5 °F 30.4 °F 27% 29.61 in 10.0 mi NNW 4.6 mph - N/A   Clear
9:58 PM 61.2 °F 43.2 °F 52% 29.62 in 10.0 mi NNW 9.2 mph - N/A   Clear
10:58 PM 57.9 °F 42.3 °F 56% 29.65 in 10.0 mi NNW 12.7 mph - N/A   Clear
11:58 PM 55.4 °F 41.4 °F 59% 29.65 in 10.0 mi NW 10.4 mph - N/A   Clear